Wind_Speed
28 29 31 33 34 37 38 37 37 36 36 36 36 37 37 38 38 39 40 40 40 41 43 44 45 45 45 46 47 47 47 47 47 47 47 47 47 47 47 47 47 47 46 46
25 27 29 30 32 34 36 37 37 36 35 34 35 36 36 37 37 39 39 39 40 41 42 43 44 45 46 46 47 47 47 47 47 47 47 47 47 47 47 46 46 46 46 46
24 25 28 30 31 33 34 35 36 36 35 35 35 34 35 36 37 38 39 39 39 41 42 43 44 44 45 46 47 47 47 47 47 47 47 46 47 47 47 46 46 46 46 47
22 24 26 27 30 31 32 33 35 36 37 37 37 36 35 35 36 37 38 38 39 40 41 42 43 44 44 44 45 46 47 47 47 47 46 46 46 46 46 46 46 46 47 47
21 22 23 25 27 30 31 31 33 34 36 37 37 37 36 35 36 37 37 38 39 39 40 41 42 43 44 44 44 45 46 46 46 46 46 46 46 46 46 45 46 46 46 47
20 21 22 23 24 26 29 30 31 31 32 34 35 35 35 36 36 36 37 38 38 39 39 40 41 42 42 43 43 44 45 45 46 46 46 46 46 45 45 45 45 45 46 46
19 20 21 22 22 24 26 27 29 29 30 31 33 33 34 35 36 36 37 37 37 38 38 39 40 40 41 41 42 43 43 44 45 45 45 45 45 45 45 45 44 44 45 45
19 20 21 21 21 22 23 24 26 27 29 30 31 32 33 34 35 35 36 36 37 37 36 37 38 38 39 40 40 40 41 41 42 43 43 44 44 44 44 44 44 44 44 44
18 19 20 21 21 21 22 23 23 25 26 27 28 29 30 32 33 33 34 34 35 35 35 36 37 37 38 38 39 39 40 40 40 41 41 42 42 42 42 42 42 42 42 42
16 17 19 20 21 22 22 22 23 23 25 26 27 27 28 29 30 32 32 32 33 34 34 36 36 36 37 37 37 37 38 39 39 40 40 40 40 40 40 40 41 41 40 40
15 16 17 19 20 21 22 23 24 23 24 25 25 26 27 27 28 30 30 31 32 33 33 34 35 35 35 36 36 37 37 37 38 38 38 38 38 38 38 38 39 39 38 38
15 16 16 17 19 20 21 22 23 24 25 26 25 25 26 27 28 28 29 30 30 31 32 32 33 34 34 35 35 36 37 37 37 37 38 38 37 37 37 37 37 37 37 36
16 17 17 17 17 18 19 21 23 23 24 25 25 26 26 26 27 27 28 28 28 29 30 31 32 33 33 33 34 35 35 36 36 36 36 37 37 37 36 36 36 36 36 36
16 17 18 18 18 18 18 20 21 22 22 23 24 24 25 26 26 27 27 27 28 28 29 29 30 31 32 33 34 34 35 35 35 35 35 36 36 36 36 35 35 36 36 36
16 17 18 18 19 19 19 19 20 21 22 23 24 24 24 25 26 26 26 27 27 28 28 28 28 28 29 31 32 33 34 34 35 35 35 35 35 35 34 34 34 34 35 34
15 16 17 17 18 19 19 19 20 21 22 23 24 24 24 25 26 26 26 26 26 27 27 27 28 28 29 29 30 31 32 33 33 34 34 33 33 33 33 33 33 33 33 33
15 15 16 16 17 18 19 19 19 20 21 22 23 23 24 24 25 25 25 25 25 26 26 27 28 28 29 29 29 30 30 30 31 31 32 31 31 31 32 31 31 31 31 30
14 15 15 16 16 17 18 19 19 19 20 21 22 22 22 23 24 25 25 26 26 26 26 27 27 28 28 28 28 29 29 29 29 29 29 29 29 30 30 30 30 30 30 29
14 15 15 15 16 17 18 19 19 20 20 20 20 21 21 22 23 24 24 25 26 26 26 26 26 27 27 27 27 27 28 28 27 27 27 28 28 27 27 27 28 27 27 28
13 13 13 14 15 16 17 18 18 19 19 19 20 20 21 21 22 23 23 24 25 25 25 26 26 26 26 26 26 26 26 26 26 26 27 26 26 26 26 26 26 26 26 26
11 12 12 13 13 14 15 16 17 17 18 18 19 20 20 21 21 22 22 23 23 23 23 24 24 24 24 24 24 24 25 25 25 24 24 25 25 25 25 25 25 24 24 24
11 12 13 13 14 14 14 15 16 16 17 17 18 19 19 20 20 21 21 21 22 22 22 22 22 23 23 23 23 23 23 24 23 23 23 24 24 23 23 23 23 22 22 22
12 13 13 14 14 14 14 15 15 16 17 17 18 18 19 19 20 20 21 21 21 22 22 23 23 23 22 22 23 23 22 22 22 22 22 22 22 22 22 21 21 21 21 20
13 13 14 14 14 14 14 14 15 15 16 16 17 18 18 19 19 20 20 21 21 21 21 22 22 22 22 21 21 21 21 21 21 21 21 21 21 20 20 20 20 20 20 19
13 14 14 14 14 14 14 14 14 15 15 16 17 17 18 18 18 18 19 19 20 19 19 20 20 21 20 20 20 20 20 20 20 20 20 20 19 19 19 19 19 18 18 17
14 15 15 15 15 15 15 15 15 15 16 16 17 17 16 16 16 15 16 17 17 17 17 18 18 18 18 18 18 18 19 19 19 19 19 18 17 17 17 17 17 16 16 16
14 15 15 15 15 15 14 14 14 14 14 14 14 14 14 14 13 14 14 14 14 14 15 15 15 15 15 15 15 16 16 16 16 16 16 15 15 14 14 14 14 14 14 14
Wind_Direction
230 231 233 233 233 232 232 233 235 235 236 237 238 239 239 239 239 240 240 240 239 239 239 240 241 242 243 244 246 247 249 251 252 254 256 258 260 262 263 265 266 268 270 271
230 231 233 234 234 234 233 233 234 234 234 235 237 238 239 240 239 239 240 241 241 240 240 241 242 243 244 245 246 247 249 251 252 254 256 258 260 261 263 265 267 268 270 271
235 235 236 235 234 235 235 235 235 235 234 235 236 238 240 241 240 240 241 242 242 242 242 242 243 244 245 245 246 247 248 250 252 253 255 257 259 261 263 266 267 269 270 271
240 237 238 237 235 234 235 236 236 237 236 238 239 240 241 242 241 241 241 242 243 243 243 243 244 245 246 246 246 247 248 250 251 253 255 257 259 261 263 265 267 269 270 272
243 241 238 234 234 234 234 234 236 238 239 240 241 243 243 243 243 243 242 243 243 244 244 244 244 244 245 246 246 247 248 250 252 253 255 257 259 261 263 265 268 269 271 272
242 242 238 236 235 235 236 235 235 237 238 239 241 243 243 244 244 244 244 245 245 245 245 245 246 246 247 246 247 248 249 251 252 254 256 257 260 261 264 266 268 270 271 273
241 241 241 239 237 235 236 236 236 237 238 239 240 243 243 244 245 246 247 247 248 247 247 247 247 248 249 248 249 249 251 252 252 254 256 258 260 262 264 267 269 270 272 274
239 239 239 239 239 238 238 237 237 237 239 239 241 242 243 244 245 246 247 248 249 249 249 247 247 248 249 249 249 250 251 253 254 255 256 258 261 263 266 268 270 271 272 274
239 239 240 240 241 241 239 238 237 238 239 239 241 242 243 245 245 245 246 247 247 248 248 247 247 247 248 250 250 251 252 253 254 255 257 259 261 263 266 268 269 270 272 273
242 242 242 242 242 241 240 239 237 237 238 240 241 243 244 244 245 244 244 245 245 246 247 247 248 248 248 249 250 251 252 254 254 255 258 260 262 264 265 267 268 269 270 272
246 244 244 242 242 242 241 241 240 240 239 241 243 245 245 243 243 243 244 245 246 247 246 246 247 248 248 248 249 251 253 254 256 257 259 261 263 264 265 267 269 269 270 271
249 248 247 247 245 243 244 244 243 242 243 243 245 246 246 245 245 245 245 246 247 248 247 247 248 249 250 250 251 252 253 255 258 259 260 262 264 266 267 269 269 269 270 271
251 250 248 248 248 248 247 246 245 244 244 244 246 247 246 246 246 246 246 248 249 249 248 249 250 251 252 252 253 254 255 256 258 259 260 262 264 266 268 268 268 268 269 271
255 252 249 249 250 251 250 249 247 245 245 245 246 247 247 247 247 248 249 250 251 251 251 251 252 253 253 253 254 255 257 258 258 259 261 262 264 266 267 267 267 268 269 270
258 255 252 251 252 252 251 249 247 247 247 247 248 249 249 249 250 251 252 253 253 253 252 253 254 254 254 255 256 257 259 259 259 260 261 263 264 265 266 267 268 268 269 269
257 255 253 254 254 254 254 252 249 248 248 248 249 250 251 251 251 252 253 254 254 254 254 255 256 257 257 258 259 260 260 260 260 260 261 262 262 264 265 267 268 268 267 267
259 257 257 258 257 256 254 254 253 252 252 252 252 253 253 252 252 252 253 254 255 255 256 257 258 259 259 260 260 262 261 261 261 260 260 260 261 263 265 266 267 266 266 267
260 259 261 262 261 260 257 254 254 254 255 256 256 255 254 251 251 252 252 253 254 255 257 257 258 258 259 260 261 261 260 260 260 260 260 261 262 263 264 265 265 264 265 265
260 260 262 264 265 263 260 257 255 256 256 256 257 257 255 253 252 253 254 254 256 257 257 258 258 259 259 260 260 260 259 259 259 259 259 260 261 261 262 263 263 263 263 264
265 264 264 266 267 266 262 259 256 256 255 257 258 259 257 256 256 255 256 257 257 257 257 258 258 259 260 261 261 260 259 257 258 259 259 259 259 260 261 262 262 262 264 265
270 269 269 270 271 269 265 261 258 257 258 257 258 259 259 259 259 258 257 257 257 256 256 257 258 259 259 260 260 260 259 259 259 258 258 258 259 260 260 261 262 263 264 265
275 275 276 275 275 273 270 265 261 259 259 259 260 261 260 260 260 259 258 257 256 256 256 257 258 258 258 259 260 261 260 258 256 256 258 258 258 258 259 261 261 262 263 264
277 278 279 278 277 277 274 269 264 262 262 262 262 263 263 263 261 260 259 258 258 258 258 258 259 259 259 260 260 260 259 257 255 256 258 258 257 257 258 259 260 261 262 263
279 281 281 281 279 277 276 273 269 267 266 266 267 267 267 267 265 262 259 258 258 259 259 259 257 257 259 259 259 258 258 257 257 257 257 257 257 256 257 257 258 259 260 261
281 284 285 283 281 279 277 275 273 271 269 270 271 271 271 270 268 266 263 260 258 257 257 257 258 258 259 259 258 258 257 256 256 256 255 255 255 255 256 257 257 257 257 257
282 285 286 285 283 281 279 278 277 275 274 273 273 274 272 271 269 267 264 260 258 257 257 257 257 256 256 256 256 257 256 255 255 253 252 251 252 254 255 255 254 253 252 252
284 285 286 286 284 282 280 280 280 279 277 274 272 272 270 268 267 267 265 261 257 255 254 253 251 250 250 251 253 253 253 252 250 247 245 244 245 248 249 250 251 249 246 245
Height
5542 5546 5550 5554 5558 5561 5565 5569 5574 5579 5582 5587 5590 5593 5597 5601 5605 5609 5612 5616 5620 5624 5628 5631 5635 5639 5642 5645 5648 5651 5654 5657 5659 5661 5662 5664 5665 5665 5666 5666 5666 5666 5666 5665
5536 5539 5542 5545 5549 5553 5557 5561 5565 5570 5574 5578 5581 5585 5588 5592 5595 5599 5603 5606 5610 5614 5617 5621 5624 5627 5631 5634 5637 5640 5643 5645 5647 5649 5651 5652 5653 5654 5654 5654 5655 5654 5654 5653
5531 5533 5535 5538 5542 5546 5550 5554 5558 5562 5567 5569 5573 5576 5580 5583 5586 5589 5593 5596 5600 5603 5606 5610 5613 5616 5619 5622 5625 5628 5631 5633 5635 5637 5639 5640 5641 5642 5643 5643 5643 5642 5642 5641
5524 5527 5529 5534 5535 5538 5542 5546 5549 5553 5557 5560 5564 5567 5570 5574 5577 5580 5583 5586 5589 5592 5596 5599 5602 5605 5608 5611 5614 5616 5619 5621 5624 5626 5627 5629 5630 5631 5631 5631 5631 5630 5630 5628
5518 5519 5522 5526 5528 5531 5534 5538 5541 5545 5548 5552 5555 5558 5562 5564 5567 5570 5573 5576 5579 5582 5585 5588 5591 5594 5597 5600 5602 5605 5607 5610 5612 5614 5616 5617 5618 5619 5619 5619 5619 5618 5617 5616
5513 5514 5516 5521 5522 5524 5527 5530 5534 5537 5540 5543 5546 5550 5553 5555 5558 5560 5563 5566 5569 5572 5574 5577 5580 5583 5586 5588 5591 5594 5596 5598 5600 5602 5604 5605 5606 5607 5607 5607 5606 5606 5605 5603
5508 5509 5511 5514 5515 5517 5522 5525 5526 5529 5532 5535 5538 5541 5544 5546 5548 5551 5554 5556 5559 5561 5564 5567 5569 5572 5575 5577 5580 5582 5584 5586 5588 5590 5592 5593 5595 5595 5595 5595 5594 5594 5593 5592
5502 5504 5508 5508 5509 5512 5514 5516 5518 5521 5523 5526 5529 5531 5534 5536 5539 5542 5544 5546 5549 5551 5554 5556 5559 5561 5564 5566 5569 5571 5573 5575 5577 5579 5580 5582 5583 5583 5583 5583 5583 5582 5581 5580
5498 5501 5501 5502 5503 5505 5507 5509 5511 5513 5516 5518 5521 5523 5525 5527 5530 5532 5535 5537 5539 5542 5544 5546 5549 5551 5554 5556 5558 5560 5562 5564 5566 5568 5569 5570 5571 5571 5572 5571 5571 5570 5569 5568
5492 5493 5495 5496 5497 5499 5501 5503 5504 5506 5509 5511 5513 5515 5517 5519 5521 5523 5525 5528 5530 5532 5534 5537 5539 5541 5544 5546 5548 5550 5552 5554 5555 5557 5558 5559 5559 5560 5560 5560 5560 5559 5558 5557
5487 5488 5489 5491 5492 5493 5495 5496 5498 5500 5502 5504 5506 5508 5509 5511 5513 5515 5517 5519 5521 5523 5525 5527 5529 5531 5533 5536 5538 5540 5542 5543 5545 5546 5547 5548 5549 5549 5549 5549 5549 5548 5547 5546
5483 5483 5484 5485 5486 5488 5489 5490 5492 5493 5495 5497 5499 5500 5502 5503 5505 5507 5509 5511 5512 5514 5516 5517 5519 5522 5523 5525 5527 5529 5531 5533 5534 5535 5537 5538 5538 5539 5538 5538 5538 5537 5536 5536
5477 5478 5479 5480 5481 5482 5483 5484 5485 5487 5488 5490 5492 5493 5494 5496 5497 5499 5500 5502 5504 5505 5506 5508 5510 5512 5514 5516 5517 5519 5521 5522 5524 5525 5526 5527 5527 5528 5528 5528 5527 5527 5526 5525
5472 5472 5473 5474 5475 5476 5477 5477 5479 5480 5481 5483 5484 5486 5487 5488 5490 5491 5493 5494 5495 5497 5498 5499 5501 5502 5504 5506 5507 5509 5510 5512 5513 5514 5515 5516 5516 5517 5517 5517 5517 5516 5516 5515
5467 5467 5468 5468 5469 5470 5470 5471 5472 5473 5475 5476 5477 5478 5480 5481 5482 5483 5485 5486 5487 5488 5490 5491 5492 5494 5495 5496 5497 5499 5500 5501 5502 5503 5504 5505 5506 5506 5506 5506 5506 5506 5506 5505
5461 5461 5461 5462 5463 5463 5464 5465 5466 5467 5468 5469 5470 5471 5472 5473 5474 5475 5477 5478 5479 5480 5481 5483 5484 5485 5486 5487 5488 5489 5490 5491 5492 5493 5494 5494 5495 5496 5496 5496 5496 5496 5496 5495
5456 5456 5456 5456 5457 5457 5458 5458 5459 5460 5461 5461 5462 5463 5464 5465 5466 5467 5469 5470 5471 5472 5473 5474 5475 5476 5477 5478 5479 5480 5480 5481 5482 5482 5483 5484 5485 5486 5486 5486 5486 5486 5486 5486
5450 5450 5450 5451 5451 5451 5452 5452 5453 5453 5454 5454 5455 5456 5456 5457 5458 5459 5460 5462 5463 5464 5465 5466 5467 5467 5468 5469 5470 5471 5471 5472 5473 5473 5474 5475 5475 5476 5476 5476 5476 5477 5477 5477
5445 5445 5445 5445 5445 5445 5445 5446 5446 5447 5447 5448 5448 5449 5449 5450 5451 5452 5452 5453 5454 5455 5456 5457 5458 5459 5459 5460 5461 5462 5462 5463 5464 5464 5465 5466 5466 5466 5467 5467 5467 5467 5468 5468
5440 5440 5440 5440 5439 5439 5439 5440 5440 5440 5441 5441 5442 5442 5443 5443 5443 5444 5445 5445 5446 5447 5448 5448 5449 5450 5451 5451 5452 5453 5454 5454 5455 5456 5456 5457 5457 5458 5458 5458 5459 5459 5459 5459
5435 5435 5435 5435 5434 5434 5434 5434 5434 5434 5434 5434 5435 5435 5436 5436 5436 5436 5437 5438 5438 5439 5440 5440 5441 5442 5442 5443 5444 5445 5445 5446 5446 5447 5448 5448 5449 5449 5450 5450 5450 5451 5451 5451
5431 5430 5430 5430 5429 5429 5428 5428 5428 5428 5428 5428 5428 5428 5429 5429 5429 5429 5430 5430 5431 5431 5432 5433 5433 5434 5435 5435 5436 5436 5437 5438 5438 5439 5440 5440 5441 5441 5442 5442 5443 5443 5443 5444
5426 5426 5425 5425 5424 5423 5423 5422 5422 5422 5422 5422 5422 5422 5422 5422 5422 5422 5422 5423 5423 5424 5425 5425 5426 5426 5427 5427 5428 5429 5429 5430 5431 5431 5432 5432 5433 5434 5434 5435 5435 5436 5436 5436
5422 5421 5420 5420 5419 5418 5418 5417 5417 5416 5416 5416 5416 5415 5415 5415 5415 5415 5415 5415 5416 5416 5417 5418 5418 5419 5419 5420 5421 5421 5422 5422 5423 5424 5424 5425 5426 5426 5427 5428 5428 5429 5429 5430
5417 5416 5415 5415 5414 5413 5412 5412 5411 5411 5410 5410 5410 5409 5409 5408 5408 5408 5408 5408 5409 5409 5410 5410 5411 5411 5412 5413 5413 5414 5414 5415 5416 5417 5417 5418 5419 5419 5420 5420 5421 5422 5422 5423
5412 5411 5410 5409 5408 5408 5407 5406 5405 5405 5404 5404 5403 5403 5402 5402 5401 5401 5401 5401 5402 5403 5403 5404 5404 5405 5405 5406 5407 5407 5408 5408 5409 5410 5411 5411 5412 5413 5414 5414 5415 5415 5416 5417
5406 5406 5405 5404 5403 5402 5401 5401 5400 5399 5398 5398 5397 5397 5396 5396 5396 5396 5396 5396 5396 5397 5397 5398 5398 5399 5400 5400 5401 5401 5402 5402 5403 5404 5405 5406 5407 5407 5408 5409 5409 5410 5411 5412